Simultaneous Nadir Overpasses (SNOs) Predictions

Prediction of SNOs between NOAA-19 and NPP Satellite Orbit:

Table of predicted SNOs for the next 14.0 days since TLE Epoch: 5/5/2017
Index Date (NOAA-19) Time (NOAA-19) Lat,Lon (NOAA-19) SZA (NOAA-19 ) Date (NPP) Time (NPP) Lat,Lon (NPP) SZA (NPP ) Distance(km) Time Diff (sec)
1 05/10/2017 04:03:02 80.84, 68.38 66.58 05/10/2017 04:04:13 80.85, 68.54 66.53 3.13 71
2 05/10/2017 04:54:07 -80.85,-123.94 113.49 05/10/2017 04:54:57 -80.84,-123.86 113.53 2.14 50
3 05/10/2017 05:45:03 80.85, 43.10 66.53 05/10/2017 05:45:43 80.86, 43.13 66.51 0.99 40
4 05/10/2017 06:36:09 -80.85,-149.58 113.49 05/10/2017 06:36:28 -80.86,-149.62 113.49 1.23 19
5 05/10/2017 07:27:04 80.85, 17.83 66.49 05/10/2017 07:27:13 80.86, 17.72 66.50 1.88 9
6 05/10/2017 08:18:10 -80.86,-174.86 113.53 05/10/2017 08:17:58 -80.86,-175.03 113.50 3.13 12
7 05/10/2017 09:09:06 80.85, -7.82 66.49 05/10/2017 09:08:43 80.86, -7.68 66.49 2.54 23
8 05/10/2017 10:00:12 -80.85, 159.50 113.54 05/10/2017 09:59:28 -80.86, 159.56 113.52 1.53 44
9 05/10/2017 10:51:07 80.86, -33.09 66.44 05/10/2017 10:50:13 80.86, -33.09 66.48 0.56 54




NCC Satellite Simultaneous Nadir Overpasses (SNOs) Prediction Service
